User: anonymous   Login
Location: Bidwell Hollow
(37.7387°N, 90.1707°W)
Time: 01:49:38
(UTC+00:00)
Language:

A-11 Canister half - Orbit

View from above orbital plane
View from above orbital plane
View from above satellite
View from above satellite

Ground track
Ground track

The orbit is defined by the following mean orbital elements,

1 00051U          26133.34267823 +.00000000 +00000-0 +14152-4 0 00006
2 00051  47.2094 157.1767 0106173  93.3876 267.9064 12.18377091    05
Epoch (UTC): 13 May 2026 08:13:27
Eccentricity: 0.0106173
inclination: 47.2094°
perigee height: 1515 km
apogee height: 1684 km
right ascension of ascending node: 157.1767°
argument of perigee: 93.3876°
revolutions per day: 12.18377091
mean anomaly at epoch: 267.9064°

The dashed part of the orbit path shows where the satellite is in the earth's shadow,  

DLR